timestamp,wind_dir_avg,wind_spd_max_dir,wind_spd_avg,wind_spd_gust,battery_voltage,lat,long
2017-10-09 00:00:00+00:00,223.0,223.0,11.91,13.48,12.6,47.59359,-54.27349
2017-10-09 00:10:00+00:00,229.0,226.0,12.53,14.07,12.6,47.59359,-54.27349
2017-10-09 00:20:00+00:00,225.0,222.0,12.2,13.99,12.7,47.59359,-54.27349
2017-10-09 00:30:00+00:00,228.0,234.0,13.49,14.88,12.7,47.59359,-54.27349
2017-10-09 00:40:00+00:00,228.0,229.0,12.5,13.92,12.7,47.59359,-54.27349
2017-10-09 00:50:00+00:00,224.0,238.0,12.11,14.53,12.7,47.59359,-54.27349
2017-10-09 01:00:00+00:00,226.0,227.0,12.72,14.35,12.6,47.59359,-54.27349
2017-10-09 01:10:00+00:00,227.0,220.0,11.79,13.54,12.6,47.59359,-54.27349
2017-10-09 01:20:00+00:00,226.0,238.0,13.07,16.63,12.7,47.59359,-54.27349
2017-10-09 01:30:00+00:00,227.0,227.0,12.53,13.92,12.6,47.59359,-54.27349
2017-10-09 01:40:00+00:00,227.0,225.0,12.0,14.11,12.7,47.59359,-54.27349
2017-10-09 01:50:00+00:00,223.0,221.0,12.38,13.65,12.7,47.59359,-54.27349
2017-10-09 02:00:00+00:00,226.0,225.0,11.57,13.49,12.6,47.59359,-54.27349
2017-10-09 02:10:00+00:00,221.0,221.0,10.39,11.71,12.6,47.59359,-54.27349
2017-10-09 02:20:00+00:00,227.0,224.0,11.1,12.53,12.6,47.59359,-54.27349
2017-10-09 02:30:00+00:00,227.0,229.0,11.05,13.45,12.6,47.59359,-54.27349
2017-10-09 02:40:00+00:00,224.0,225.0,11.04,12.52,12.6,47.59359,-54.27349
2017-10-09 02:50:00+00:00,220.0,219.0,9.34,10.78,12.6,47.59359,-54.27349
2017-10-09 03:00:00+00:00,222.0,223.0,10.84,11.88,12.6,47.59359,-54.27349
2017-10-09 03:10:00+00:00,226.0,225.0,9.85,11.56,12.6,47.59359,-54.27349
2017-10-09 03:20:00+00:00,229.0,224.0,10.97,12.32,12.6,47.59359,-54.27349
2017-10-09 03:30:00+00:00,229.0,226.0,11.1,12.13,12.6,47.59359,-54.27349
2017-10-09 03:40:00+00:00,224.0,223.0,10.64,11.99,12.6,47.59359,-54.27349
2017-10-09 03:50:00+00:00,223.0,226.0,9.66,10.99,12.6,47.59359,-54.27349
2017-10-09 04:00:00+00:00,222.0,224.0,11.27,12.9,12.6,47.59359,-54.27349
2017-10-09 04:10:00+00:00,222.0,224.0,10.75,12.16,12.6,47.59359,-54.27349
2017-10-09 04:20:00+00:00,224.0,223.0,11.85,13.03,12.6,47.59359,-54.27349
2017-10-09 04:30:00+00:00,223.0,231.0,11.06,13.24,12.6,47.59359,-54.27349
2017-10-09 04:40:00+00:00,222.0,224.0,10.43,11.6,12.6,47.59359,-54.27349
2017-10-09 04:50:00+00:00,223.0,231.0,10.77,12.65,12.6,47.59359,-54.27349
2017-10-09 05:00:00+00:00,222.0,218.0,12.49,14.27,12.6,47.59359,-54.27349
2017-10-09 05:10:00+00:00,227.0,229.0,12.43,14.49,12.6,47.59359,-54.27349
2017-10-09 05:20:00+00:00,218.0,222.0,11.23,12.28,12.6,47.59359,-54.27349
2017-10-09 05:30:00+00:00,226.0,226.0,11.04,12.55,12.6,47.59359,-54.27349
2017-10-09 05:40:00+00:00,227.0,229.0,11.43,13.09,12.6,47.59359,-54.27349
2017-10-09 05:50:00+00:00,223.0,217.0,12.42,14.81,12.6,47.59359,-54.27349
2017-10-09 06:00:00+00:00,223.0,225.0,11.41,13.01,12.6,47.59359,-54.27349
2017-10-09 06:10:00+00:00,223.0,227.0,10.03,11.44,12.5,47.59359,-54.27349
2017-10-09 06:20:00+00:00,221.0,224.0,10.65,12.44,12.6,47.59359,-54.27349
2017-10-09 06:30:00+00:00,215.0,216.0,10.4,11.67,12.6,47.59359,-54.27349
2017-10-09 06:40:00+00:00,223.0,225.0,11.08,13.01,12.6,47.59359,-54.27349
2017-10-09 06:50:00+00:00,226.0,228.0,13.72,15.97,12.6,47.59359,-54.27349
2017-10-09 07:00:00+00:00,227.0,227.0,12.69,15.01,12.6,47.59359,-54.27349
2017-10-09 07:10:00+00:00,230.0,231.0,12.1,14.2,12.5,47.59359,-54.27349
2017-10-09 07:20:00+00:00,226.0,230.0,12.48,15.73,12.6,47.59359,-54.27349
2017-10-09 07:30:00+00:00,227.0,219.0,11.0,12.74,12.6,47.59359,-54.27349
2017-10-09 07:40:00+00:00,230.0,232.0,9.0,10.92,12.6,47.59359,-54.27349
2017-10-09 07:50:00+00:00,242.0,243.0,9.15,10.73,12.6,47.59359,-54.27349
2017-10-09 08:00:00+00:00,242.0,250.0,9.27,11.4,12.6,47.59359,-54.27349
2017-10-09 08:10:00+00:00,243.0,244.0,7.86,9.76,12.5,47.59359,-54.27349
2017-10-09 08:20:00+00:00,234.0,235.0,6.9,8.63,12.6,47.59359,-54.27349
2017-10-09 08:30:00+00:00,230.0,234.0,7.49,8.4,12.6,47.59359,-54.27349
2017-10-09 08:40:00+00:00,230.0,232.0,8.11,9.21,12.6,47.59359,-54.27349
2017-10-09 08:50:00+00:00,233.0,232.0,7.6,8.81,12.6,47.59359,-54.27349
2017-10-09 09:00:00+00:00,225.0,228.0,7.33,8.67,12.6,47.59359,-54.27349
2017-10-09 09:10:00+00:00,215.0,213.0,9.63,10.31,12.5,47.59359,-54.27349
2017-10-09 09:20:00+00:00,223.0,219.0,7.57,8.93,12.6,47.59359,-54.27349
2017-10-09 09:30:00+00:00,237.0,240.0,7.65,10.42,12.6,47.59359,-54.27349
2017-10-09 09:40:00+00:00,241.0,246.0,7.9,9.46,12.6,47.59359,-54.27349
2017-10-09 09:50:00+00:00,268.0,269.0,7.16,9.01,12.6,47.59359,-54.27349
2017-10-09 10:00:00+00:00,262.0,265.0,6.34,7.47,12.6,47.59359,-54.27349
2017-10-09 10:10:00+00:00,258.0,256.0,6.16,7.66,12.5,47.59359,-54.27349
2017-10-09 10:20:00+00:00,245.0,249.0,5.89,6.74,12.6,47.59359,-54.27349
2017-10-09 10:30:00+00:00,250.0,248.0,6.71,7.61,12.6,47.59359,-54.27349
2017-10-09 10:40:00+00:00,267.0,256.0,7.12,8.39,12.6,47.59359,-54.27349
2017-10-09 10:50:00+00:00,275.0,284.0,8.61,10.75,12.6,47.59359,-54.27349
2017-10-09 11:00:00+00:00,278.0,273.0,7.27,8.78,12.6,47.59359,-54.27349
2017-10-09 11:10:00+00:00,273.0,272.0,7.23,8.11,12.6,47.59359,-54.27349
2017-10-09 11:20:00+00:00,265.0,263.0,6.11,7.99,12.6,47.59359,-54.27349
2017-10-09 11:30:00+00:00,264.0,262.0,5.21,5.55,12.7,47.59359,-54.27349
2017-10-09 11:40:00+00:00,278.0,282.0,5.16,6.18,12.8,47.59359,-54.27349
2017-10-09 11:50:00+00:00,259.0,259.0,6.36,7.01,13.0,47.59359,-54.27349
2017-10-09 12:00:00+00:00,258.0,261.0,6.45,7.26,13.4,47.59359,-54.27349
2017-10-09 12:10:00+00:00,262.0,262.0,7.28,7.86,13.7,47.59359,-54.27349
2017-10-09 12:20:00+00:00,272.0,270.0,9.33,11.13,13.7,47.59359,-54.27349
2017-10-09 12:30:00+00:00,254.0,253.0,7.93,8.79,13.6,47.59359,-54.27349
2017-10-09 12:40:00+00:00,251.0,245.0,6.6,7.96,13.6,47.59359,-54.27349
2017-10-09 12:50:00+00:00,250.0,251.0,6.64,7.46,13.6,47.59359,-54.27349
2017-10-09 13:00:00+00:00,258.0,254.0,6.1,8.16,13.6,47.59359,-54.27349
2017-10-09 13:10:00+00:00,249.0,248.0,6.56,7.96,13.6,47.59359,-54.27349
2017-10-09 13:20:00+00:00,246.0,251.0,6.6,7.32,13.8,47.59359,-54.27349
2017-10-09 13:30:00+00:00,240.0,247.0,5.31,6.45,13.7,47.59359,-54.27349
2017-10-09 13:40:00+00:00,229.0,229.0,5.02,5.47,13.7,47.59359,-54.27349
2017-10-09 13:50:00+00:00,220.0,220.0,4.41,4.92,13.6,47.59359,-54.27349
2017-10-09 14:00:00+00:00,224.0,229.0,4.73,5.21,13.5,47.59359,-54.27349
2017-10-09 14:10:00+00:00,220.0,228.0,3.99,4.79,13.4,47.59359,-54.27349
2017-10-09 14:20:00+00:00,217.0,216.0,4.6,5.06,14.0,47.59359,-54.27349
2017-10-09 14:30:00+00:00,225.0,232.0,4.52,5.05,13.8,47.59359,-54.27349
2017-10-09 14:40:00+00:00,219.0,223.0,5.29,6.1,13.7,47.59359,-54.27349
2017-10-09 14:50:00+00:00,216.0,216.0,5.15,5.47,13.7,47.59359,-54.27349
2017-10-09 15:00:00+00:00,227.0,228.0,4.59,5.07,13.9,47.59359,-54.27349
2017-10-09 15:10:00+00:00,232.0,234.0,7.24,8.03,13.7,47.59359,-54.27349
2017-10-09 15:20:00+00:00,230.0,234.0,6.17,7.22,14.0,47.59359,-54.27349
2017-10-09 15:30:00+00:00,212.0,224.0,6.66,7.9,14.0,47.59359,-54.27349
2017-10-09 15:40:00+00:00,201.0,202.0,5.53,6.15,13.8,47.59359,-54.27349
2017-10-09 15:50:00+00:00,205.0,209.0,3.64,4.74,13.6,47.59359,-54.27349
2017-10-09 16:00:00+00:00,214.0,214.0,6.54,7.55,14.1,47.59359,-54.27349
2017-10-09 16:10:00+00:00,219.0,219.0,5.1,6.51,13.7,47.59359,-54.27349
2017-10-09 16:20:00+00:00,235.0,234.0,4.26,4.96,13.9,47.59359,-54.27349
2017-10-09 16:30:00+00:00,235.0,233.0,4.92,6.41,13.8,47.59359,-54.27349
2017-10-09 16:40:00+00:00,254.0,265.0,4.41,5.6,13.9,47.59359,-54.27349
2017-10-09 16:50:00+00:00,275.0,273.0,6.21,6.51,13.6,47.59359,-54.27349
2017-10-09 17:00:00+00:00,284.0,286.0,4.84,5.52,13.8,47.59359,-54.27349
2017-10-09 17:10:00+00:00,234.0,232.0,4.7,5.35,13.8,47.59359,-54.27349
2017-10-09 17:20:00+00:00,223.0,225.0,5.02,5.44,13.7,47.59359,-54.27349
2017-10-09 17:30:00+00:00,193.0,202.0,3.63,4.12,13.8,47.59359,-54.27349
2017-10-09 17:40:00+00:00,215.0,216.0,4.46,4.95,13.7,47.59359,-54.27349
2017-10-09 17:50:00+00:00,220.0,220.0,5.74,6.29,13.7,47.59359,-54.27349
2017-10-09 18:00:00+00:00,221.0,220.0,5.61,6.09,13.8,47.59359,-54.27349
2017-10-09 18:10:00+00:00,231.0,240.0,5.41,6.68,13.7,47.59359,-54.27349
2017-10-09 18:20:00+00:00,222.0,226.0,5.42,6.37,13.8,47.59359,-54.27349
2017-10-09 18:30:00+00:00,218.0,217.0,7.38,8.08,13.7,47.59359,-54.27349
2017-10-09 18:40:00+00:00,225.0,227.0,5.14,5.57,13.9,47.59359,-54.27349
2017-10-09 18:50:00+00:00,232.0,229.0,4.14,5.12,13.7,47.59359,-54.27349
2017-10-09 19:00:00+00:00,243.0,241.0,4.85,5.28,13.7,47.59359,-54.27349
2017-10-09 19:10:00+00:00,198.0,237.0,2.34,3.19,13.8,47.59359,-54.27349
2017-10-09 19:20:00+00:00,218.0,221.0,4.05,4.84,13.6,47.59359,-54.27349
2017-10-09 19:30:00+00:00,248.0,244.0,5.63,6.23,13.8,47.59359,-54.27349
2017-10-09 19:40:00+00:00,234.0,236.0,4.92,5.47,13.9,47.59359,-54.27349
2017-10-09 19:50:00+00:00,225.0,228.0,8.0,8.99,13.8,47.59359,-54.27349
2017-10-09 20:00:00+00:00,230.0,232.0,6.77,7.36,13.7,47.59359,-54.27349
2017-10-09 20:10:00+00:00,233.0,234.0,7.59,8.32,13.6,47.59359,-54.27349
2017-10-09 20:20:00+00:00,239.0,239.0,6.84,7.86,13.7,47.59359,-54.27349
2017-10-09 20:30:00+00:00,236.0,237.0,6.63,7.49,13.6,47.59359,-54.27349
2017-10-09 20:40:00+00:00,246.0,246.0,4.77,5.28,13.5,47.59359,-54.27349
2017-10-09 20:50:00+00:00,251.0,252.0,3.96,4.15,13.4,47.59359,-54.27349
2017-10-09 21:00:00+00:00,243.0,248.0,3.75,4.2,13.3,47.59359,-54.27349
2017-10-09 21:10:00+00:00,261.0,264.0,4.99,6.24,13.0,47.59359,-54.27349
2017-10-09 21:20:00+00:00,231.0,231.0,4.75,5.57,13.0,47.59359,-54.27349
2017-10-09 21:30:00+00:00,269.0,273.0,3.95,4.7,13.0,47.59359,-54.27349
2017-10-09 21:40:00+00:00,156.0,169.0,1.75,2.46,13.0,47.59359,-54.27349
2017-10-09 21:50:00+00:00,227.0,228.0,2.55,3.0,13.0,47.59359,-54.27349
2017-10-09 22:00:00+00:00,225.0,224.0,3.74,4.18,12.9,47.59359,-54.27349
2017-10-09 22:10:00+00:00,231.0,230.0,3.82,4.1,12.7,47.59359,-54.27349
2017-10-09 22:20:00+00:00,228.0,229.0,3.61,4.08,12.8,47.59359,-54.27349
2017-10-09 22:30:00+00:00,217.0,216.0,4.65,4.87,12.8,47.59359,-54.27349
2017-10-09 22:40:00+00:00,213.0,216.0,4.42,4.75,12.8,47.59359,-54.27349
2017-10-09 22:50:00+00:00,202.0,202.0,4.08,4.29,12.8,47.59359,-54.27349
2017-10-09 23:00:00+00:00,230.0,232.0,4.06,4.23,12.7,47.59359,-54.27349
2017-10-09 23:10:00+00:00,230.0,230.0,3.9,4.54,12.6,47.59359,-54.27349
2017-10-09 23:20:00+00:00,233.0,235.0,3.34,3.71,12.7,47.59359,-54.27349
2017-10-09 23:30:00+00:00,233.0,232.0,2.94,3.48,12.7,47.59359,-54.27349
2017-10-09 23:40:00+00:00,229.0,230.0,3.65,3.99,12.7,47.59359,-54.27349
2017-10-09 23:50:00+00:00,248.0,252.0,3.45,3.66,12.7,47.59359,-54.27349
